Location: Misciano
(43.5000°N, 11.9500°E)
Time: 03:57:02
(UTC+00:00)

ALOS 2 - Pass Details

Date: 13 August 2020
Orbit: 630 x 632 km, 97.9° (Epoch: 19 September)

Event Time Altitude Azimuth Distance (km) Brightness Sun altitude
Exits shadow 22:34:56 34° 357° (N) 1,059 4.2 -31.4°
Drops below altitude 10° 22:37:26 10° 351° (N) 2,023 6.1 -31.5°
Sets 22:39:39 0° 349° (N) 2,936 7.2 -31.6°
